Regional Weather Roundup
Issued by NWS Northern Indiana

Home | Current Version | Previous Version | Graphics & Text | Print | Product List | Glossary On
Versions: 1 2 3 4 5 6 7 8 9 10 11 12 13 14 15 16 17 18 19 20 21 22 23 24 25 26 27 28 29 30 31 32 33 34 35 36 37 38 39 40 41 42 43 44 45 46 47 48 49 50
000
ASUS43 KIWX 060310
RWRIWX

KIWX WEATHER ROUNDUP
NATIONAL WEATHER SERVICE NORTHERN INDIANA
1100 PM EDT SUN JUL 05 2015

NOTE: "FAIR" INDICATES FEW OR NO CLOUDS BELOW 12,000 FEET WITH NO
SIGNIFICANT WEATHER AND/OR OBSTRUCTIONS TO VISIBILITY.

* THESE STATIONS ARE NOT UNDER NWS QUALITY CONTROL. THEY ALSO MAY NOT
  REPORT WEATHER SUCH AS PRECIPITATION OR FOG.

INZ001>027-060400-
NORTHERN INDIANA

CITY           SKY/WX    TMP DP  RH WIND       PRES   REMARKS
GARY*          PTCLDY   N/A N/A N/A SE5       30.04R
VALPARAISO     CLEAR     73  61  65 SE5       30.05S
MICHIGAN CITY* CLEAR     70  61  73 CALM      30.05S
LAPORTE*       CLEAR     71  64  79 CALM      30.07R
KNOX*          CLEAR     68  63  83 SE5       30.05R
SOUTH BEND     CLEAR     71  60  68 CALM      30.06S
GOSHEN         PTCLDY    69  63  81 SE6       30.07R
MONTICELLO*    CLEAR     70  66  88 CALM      30.05S
LOGANSPORT*    CLEAR     68  61  77 S3        30.08R
ROCHESTER*     PTCLDY    72  64  78 CALM      30.08R
WARSAW*          N/A     68  61  77 CALM      30.08R
ANGOLA*          N/A     68  61  77 CALM      30.09R
FORT WAYNE     PTCLDY    68  64  87 CALM      30.09R
HUNTINGTON*    PTCLDY    66  64  94 CALM      30.08R
PERU/GRISSOM   CLEAR     71  65  81 SE2       30.07R
MARION*        PTCLDY    67  64  93 CALM      30.09R

$$
INZ028>050-060400-
CENTRAL INDIANA

CITY           SKY/WX    TMP DP  RH WIND       PRES   REMARKS
LAFAYETTE      CLEAR     67  64  90 CALM      30.05R
KOKOMO*        PTCLDY    70  64  83 CALM      30.08R
MUNCIE*        CLEAR     68  61  78 CALM      30.09R
INDIANAPOLIS   PTCLDY    72  61  68 SE5       30.06S

$$
MIZ043>046-050>051-056>058-064>065-071>073-077>080-060400-
SOUTHWEST LOWER MICHIGAN

CITY           SKY/WX    TMP DP  RH WIND       PRES   REMARKS
BATTLE CREEK   CLEAR     72  61  68 S5        30.08R
BENTON HARBOR  CLEAR     65  61  87 CALM      30.05R
COLDWATER*     PTCLDY    67  59  75 SE3       30.08S
HILLSDALE*     CLEAR     68  62  80 SE5       30.10S
HOLLAND        CLEAR     68  61  78 CALM      30.05R
GRAND RAPIDS   CLEAR     71  63  75 W5        30.06R
KALAMAZOO      PTCLDY    71  61  70 SE3       30.07R
STURGIS*       PTCLDY    72  61  68 SE5       30.08R
THREE RIVERS*  FAIR      71  63  76 SE5       30.07S

$$
OHZ001>008-015>018-024>025-060400-
NORTHWEST OHIO

CITY           SKY/WX    TMP DP  RH WIND       PRES   REMARKS
DEFIANCE       PTCLDY    68  61  78 E5        30.08R
FINDLAY        MOCLDY    70  63  78 E8        30.07S
TOLEDO EXPRESS PTCLDY    65  56  72 CALM      30.08R
TOLEDO METCALF PTCLDY    68  59  73 E3        30.08F
LIMA           MOCLDY    68  61  78 S3        30.09R

$$
AND FOR LAKE MICHIGAN COASTAL AND OPEN LAKE BUOY OBSERVATIONS

STATION/POSITION TEMP    WIND        PRES    VSBY  WAVE
                 AIR SEA DIR/SP/G                  HT/PER
                 (F)     (DEG/KT/KT) (MB)    (MI)  (FT/S)
CALUMET HARBOR    72     110/  4/  6   N/A
MICHIGAN CITY     76     130/  4/  6   N/A
BURNS HARBOR      72     190/  4/  6 1017.6S
SAINT JOSEPH      71      CALM  /  2 1018.3R
4 MI NW BRIDGMAN  69 67                N/A           0
MICHIGAN CITY     70 67  160/  4/  8   N/A           0

$$
&&



USA.gov is the U.S. government's official web portal to all federal, state and local government web resources and services.